Year,Month,Day,Hour,Minute,Value (Times are PST for temperature in C)
2014,07,27,00,00,14.40
2014,07,27,00,01,14.40
2014,07,27,00,02,14.40
2014,07,27,00,03,14.40
2014,07,27,00,04,14.40
2014,07,27,00,05,14.40
2014,07,27,00,06,14.40
2014,07,27,00,07,14.40
2014,07,27,00,08,14.40
2014,07,27,00,09,14.40
2014,07,27,00,10,14.40
2014,07,27,00,11,14.40
2014,07,27,00,12,14.40
2014,07,27,00,13,14.30
2014,07,27,00,14,14.30
2014,07,27,00,15,14.30
2014,07,27,00,16,14.30
2014,07,27,00,17,14.30
2014,07,27,00,18,14.30
2014,07,27,00,19,14.30
2014,07,27,00,20,14.20
2014,07,27,00,21,14.20
2014,07,27,00,22,14.20
2014,07,27,00,23,14.20
2014,07,27,00,24,14.10
2014,07,27,00,25,14.10
2014,07,27,00,26,14.10
2014,07,27,00,27,14.10
2014,07,27,00,28,14.00
2014,07,27,00,29,14.00
2014,07,27,00,30,14.00
2014,07,27,00,31,13.90
2014,07,27,00,32,13.90
2014,07,27,00,33,13.90
2014,07,27,00,34,13.90
2014,07,27,00,35,13.90
2014,07,27,00,36,13.80
2014,07,27,00,37,13.80
2014,07,27,00,38,13.80
2014,07,27,00,39,13.80
2014,07,27,00,40,13.80
2014,07,27,00,41,13.80
2014,07,27,00,42,13.70
2014,07,27,00,43,13.70
2014,07,27,00,44,13.70
2014,07,27,00,45,13.70
2014,07,27,00,46,13.70
2014,07,27,00,47,13.70
2014,07,27,00,48,13.70
2014,07,27,00,49,13.70
2014,07,27,00,50,13.70
2014,07,27,00,51,13.60
2014,07,27,00,52,13.60
2014,07,27,00,53,13.60
2014,07,27,00,54,13.60
2014,07,27,00,55,13.60
2014,07,27,00,56,13.50
2014,07,27,00,57,13.50
2014,07,27,00,58,13.50
2014,07,27,00,59,13.50
2014,07,27,01,00,13.50
2014,07,27,01,01,13.40
2014,07,27,01,02,13.40
2014,07,27,01,03,13.40
2014,07,27,01,04,13.40
2014,07,27,01,05,13.40
2014,07,27,01,06,13.40
2014,07,27,01,07,13.40
2014,07,27,01,08,13.30
2014,07,27,01,09,13.30
2014,07,27,01,10,13.30
2014,07,27,01,11,13.30
2014,07,27,01,12,13.30
2014,07,27,01,13,13.30
2014,07,27,01,14,13.30
2014,07,27,01,15,13.30
2014,07,27,01,16,13.20
2014,07,27,01,17,13.20
2014,07,27,01,18,13.20
2014,07,27,01,19,13.20
2014,07,27,01,20,13.10
2014,07,27,01,21,13.10
2014,07,27,01,22,13.10
2014,07,27,01,23,13.10
2014,07,27,01,24,13.10
2014,07,27,01,25,13.00
2014,07,27,01,26,13.00
2014,07,27,01,27,12.90
2014,07,27,01,28,12.90
2014,07,27,01,29,12.90
2014,07,27,01,30,12.90
2014,07,27,01,31,12.80
2014,07,27,01,32,12.80
2014,07,27,01,33,12.80
2014,07,27,01,34,12.80
2014,07,27,01,35,12.70
2014,07,27,01,36,12.70
2014,07,27,01,37,12.70
2014,07,27,01,38,12.70
2014,07,27,01,39,12.70
2014,07,27,01,40,12.70
2014,07,27,01,41,12.60
2014,07,27,01,42,12.60
2014,07,27,01,43,12.60
2014,07,27,01,44,12.60
2014,07,27,01,45,12.60
2014,07,27,01,46,12.60
2014,07,27,01,47,12.50
2014,07,27,01,48,12.50
2014,07,27,01,49,12.50
2014,07,27,01,50,12.40
2014,07,27,01,51,12.40
2014,07,27,01,52,12.40
2014,07,27,01,53,12.40
2014,07,27,01,54,12.40
2014,07,27,01,55,12.40
2014,07,27,01,56,12.40
2014,07,27,01,57,12.40
2014,07,27,01,58,12.40
2014,07,27,01,59,12.40
2014,07,27,02,00,12.40
2014,07,27,02,01,12.40
2014,07,27,02,02,12.40
2014,07,27,02,03,12.30
2014,07,27,02,04,12.30
2014,07,27,02,05,12.30
2014,07,27,02,06,12.30
2014,07,27,02,07,12.30
2014,07,27,02,08,12.30
2014,07,27,02,09,12.30
2014,07,27,02,10,12.30
2014,07,27,02,11,12.30
2014,07,27,02,12,12.30
2014,07,27,02,13,12.30
2014,07,27,02,14,12.30
2014,07,27,02,15,12.30
2014,07,27,02,16,12.30
2014,07,27,02,17,12.30
2014,07,27,02,18,12.30
2014,07,27,02,19,12.20
2014,07,27,02,20,12.20
2014,07,27,02,21,12.20
2014,07,27,02,22,12.20
2014,07,27,02,23,12.20
2014,07,27,02,24,12.20
2014,07,27,02,25,12.20
2014,07,27,02,26,12.20
2014,07,27,02,27,12.10
2014,07,27,02,28,12.10
2014,07,27,02,29,12.10
2014,07,27,02,30,12.10
2014,07,27,02,31,12.10
2014,07,27,02,32,12.10
2014,07,27,02,33,12.10
2014,07,27,02,34,12.10
2014,07,27,02,35,12.10
2014,07,27,02,36,12.00
2014,07,27,02,37,12.00
2014,07,27,02,38,12.00
2014,07,27,02,39,12.00
2014,07,27,02,40,11.90
2014,07,27,02,41,11.90
2014,07,27,02,42,11.90
2014,07,27,02,43,11.90
2014,07,27,02,44,11.90
2014,07,27,02,45,11.90
2014,07,27,02,46,11.90
2014,07,27,02,47,11.90
2014,07,27,02,48,11.90
2014,07,27,02,49,11.90
2014,07,27,02,50,11.90
2014,07,27,02,51,11.90
2014,07,27,02,52,11.90
2014,07,27,02,53,11.90
2014,07,27,02,54,11.90
2014,07,27,02,55,11.90
2014,07,27,02,56,11.90
2014,07,27,02,57,11.90
2014,07,27,02,58,11.90
2014,07,27,02,59,11.90
2014,07,27,03,00,11.90
2014,07,27,03,01,11.90
2014,07,27,03,02,11.90
2014,07,27,03,03,11.80
2014,07,27,03,04,11.80
2014,07,27,03,05,11.80
2014,07,27,03,06,11.80
2014,07,27,03,07,11.80
2014,07,27,03,08,11.80
2014,07,27,03,09,11.80
2014,07,27,03,10,11.80
2014,07,27,03,11,11.80
2014,07,27,03,12,11.80
2014,07,27,03,13,11.80
2014,07,27,03,14,11.80
2014,07,27,03,15,11.80
2014,07,27,03,16,11.80
2014,07,27,03,17,11.80
2014,07,27,03,18,11.80
2014,07,27,03,19,11.80
2014,07,27,03,20,11.80
2014,07,27,03,21,11.80
2014,07,27,03,22,11.80
2014,07,27,03,23,11.80
2014,07,27,03,24,11.80
2014,07,27,03,25,11.80
2014,07,27,03,26,11.80
2014,07,27,03,27,11.80
2014,07,27,03,28,11.80
2014,07,27,03,29,11.80
2014,07,27,03,30,11.80
2014,07,27,03,31,11.80
2014,07,27,03,32,11.80
2014,07,27,03,33,11.80
2014,07,27,03,34,11.80
2014,07,27,03,35,11.80
2014,07,27,03,36,11.80
2014,07,27,03,37,11.80
2014,07,27,03,38,11.80
2014,07,27,03,39,11.80
2014,07,27,03,40,11.80
2014,07,27,03,41,11.80
2014,07,27,03,42,11.80
2014,07,27,03,43,11.80
2014,07,27,03,44,11.80
2014,07,27,03,45,11.80
2014,07,27,03,46,11.80
2014,07,27,03,47,11.80
2014,07,27,03,48,11.80
2014,07,27,03,49,11.80
2014,07,27,03,50,11.70
2014,07,27,03,51,11.70
2014,07,27,03,52,11.70
2014,07,27,03,53,11.70
2014,07,27,03,54,11.70
2014,07,27,03,55,11.70
2014,07,27,03,56,11.70
2014,07,27,03,57,11.70
2014,07,27,03,58,11.70
2014,07,27,03,59,11.60
2014,07,27,04,00,11.60
2014,07,27,04,01,11.60
2014,07,27,04,02,11.60
2014,07,27,04,03,11.60
2014,07,27,04,04,11.60
2014,07,27,04,05,11.60
2014,07,27,04,06,11.60
2014,07,27,04,07,11.50
2014,07,27,04,08,11.60
2014,07,27,04,09,11.60
2014,07,27,04,10,11.60
2014,07,27,04,11,11.60
2014,07,27,04,12,11.60
2014,07,27,04,13,11.60
2014,07,27,04,14,11.60
2014,07,27,04,15,11.50
2014,07,27,04,16,11.50
2014,07,27,04,17,11.50
2014,07,27,04,18,11.50
2014,07,27,04,19,11.40
2014,07,27,04,20,11.40
2014,07,27,04,21,11.40
2014,07,27,04,22,11.40
2014,07,27,04,23,11.40
2014,07,27,04,24,11.30
2014,07,27,04,25,11.30
2014,07,27,04,26,11.30
2014,07,27,04,27,11.30
2014,07,27,04,28,11.30
2014,07,27,04,29,11.30
2014,07,27,04,30,11.30
2014,07,27,04,31,11.30
2014,07,27,04,32,11.30
2014,07,27,04,33,11.30
2014,07,27,04,34,11.20
2014,07,27,04,35,11.20
2014,07,27,04,36,11.20
2014,07,27,04,37,11.20
2014,07,27,04,38,11.20
2014,07,27,04,39,11.10
2014,07,27,04,40,11.10
2014,07,27,04,41,11.10
2014,07,27,04,42,11.10
2014,07,27,04,43,11.10
2014,07,27,04,44,11.00
2014,07,27,04,45,11.00
2014,07,27,04,46,11.00
2014,07,27,04,47,10.90
2014,07,27,04,48,10.90
2014,07,27,04,49,10.90
2014,07,27,04,50,10.90
2014,07,27,04,51,10.90
2014,07,27,04,52,10.90
2014,07,27,04,53,10.90
2014,07,27,04,54,10.90
2014,07,27,04,55,10.90
2014,07,27,04,56,10.90
2014,07,27,04,57,10.90
2014,07,27,04,58,10.90
2014,07,27,04,59,10.90
2014,07,27,05,00,10.90
2014,07,27,05,01,10.90
2014,07,27,05,02,10.90
2014,07,27,05,03,11.00
2014,07,27,05,04,11.00
2014,07,27,05,05,11.00
2014,07,27,05,06,11.00
2014,07,27,05,07,11.10
2014,07,27,05,08,11.10
2014,07,27,05,09,11.10
2014,07,27,05,10,11.10
2014,07,27,05,11,11.10
2014,07,27,05,12,11.10
2014,07,27,05,13,11.10
2014,07,27,05,14,11.10
2014,07,27,05,15,11.10
2014,07,27,05,16,11.10
2014,07,27,05,17,11.10
2014,07,27,05,18,11.10
2014,07,27,05,19,11.10
2014,07,27,05,20,11.00
2014,07,27,05,21,11.00
2014,07,27,05,22,11.00
2014,07,27,05,23,11.00
2014,07,27,05,24,10.90
2014,07,27,05,25,10.90
2014,07,27,05,26,10.90
2014,07,27,05,27,10.90
2014,07,27,05,28,10.90
2014,07,27,05,29,10.90
2014,07,27,05,30,10.90
2014,07,27,05,31,10.90
2014,07,27,05,32,10.90
2014,07,27,05,33,10.80
2014,07,27,05,34,10.80
2014,07,27,05,35,10.80
2014,07,27,05,36,10.80
2014,07,27,05,37,10.80
2014,07,27,05,38,10.80
2014,07,27,05,39,10.80
2014,07,27,05,40,10.80
2014,07,27,05,41,10.80
2014,07,27,05,42,10.80
2014,07,27,05,43,10.80
2014,07,27,05,44,10.80
2014,07,27,05,45,10.80
2014,07,27,05,46,10.80
2014,07,27,05,47,10.90
2014,07,27,05,48,10.90
2014,07,27,05,49,10.90
2014,07,27,05,50,10.90
2014,07,27,05,51,10.80
2014,07,27,05,52,10.80
2014,07,27,05,53,10.80
2014,07,27,05,54,10.80
2014,07,27,05,55,10.80
2014,07,27,05,56,10.80
2014,07,27,05,57,10.80
2014,07,27,05,58,10.80
2014,07,27,05,59,10.80
2014,07,27,06,00,10.80
2014,07,27,06,01,10.80
2014,07,27,06,02,10.80
2014,07,27,06,03,10.80
2014,07,27,06,04,10.80
2014,07,27,06,05,10.70
2014,07,27,06,06,10.70
2014,07,27,06,07,10.70
2014,07,27,06,08,10.70
2014,07,27,06,09,10.70
2014,07,27,06,10,10.70
2014,07,27,06,11,10.70
2014,07,27,06,12,10.70
2014,07,27,06,13,10.70
2014,07,27,06,14,10.70
2014,07,27,06,15,10.70
2014,07,27,06,16,10.70
2014,07,27,06,17,10.70
2014,07,27,06,18,10.70
2014,07,27,06,19,10.70
2014,07,27,06,20,10.70
2014,07,27,06,21,10.70
2014,07,27,06,22,10.70
2014,07,27,06,23,10.70
2014,07,27,06,24,10.70
2014,07,27,06,25,10.70
2014,07,27,06,26,10.70
2014,07,27,06,27,10.70
2014,07,27,06,28,10.70
2014,07,27,06,29,10.70
2014,07,27,06,30,10.70
2014,07,27,06,31,10.70
2014,07,27,06,32,10.70
2014,07,27,06,33,10.70
2014,07,27,06,34,10.70
2014,07,27,06,35,10.70
2014,07,27,06,36,10.70
2014,07,27,06,37,10.70
2014,07,27,06,38,10.70
2014,07,27,06,39,10.70
2014,07,27,06,40,10.70
2014,07,27,06,41,10.70
2014,07,27,06,42,10.70
2014,07,27,06,43,10.70
2014,07,27,06,44,10.70
2014,07,27,06,45,10.70
2014,07,27,06,46,10.70
2014,07,27,06,47,10.70
2014,07,27,06,48,10.70
2014,07,27,06,49,10.70
2014,07,27,06,50,10.80
2014,07,27,06,51,10.80
2014,07,27,06,52,10.80
2014,07,27,06,53,10.80
2014,07,27,06,54,10.90
2014,07,27,06,55,10.90
2014,07,27,06,56,10.90
2014,07,27,06,57,11.00
2014,07,27,06,58,11.00
2014,07,27,06,59,11.00
2014,07,27,07,00,11.10
2014,07,27,07,01,11.10
2014,07,27,07,02,11.10
2014,07,27,07,03,11.10
2014,07,27,07,04,11.10
2014,07,27,07,05,11.20
2014,07,27,07,06,11.20
2014,07,27,07,07,11.20
2014,07,27,07,08,11.30
2014,07,27,07,09,11.30
2014,07,27,07,10,11.30
2014,07,27,07,11,11.40
2014,07,27,07,12,11.40
2014,07,27,07,13,11.50
2014,07,27,07,14,11.50
2014,07,27,07,15,11.60
2014,07,27,07,16,11.60
2014,07,27,07,17,11.70
2014,07,27,07,18,11.80
2014,07,27,07,19,11.80
2014,07,27,07,20,11.90
2014,07,27,07,21,12.00
2014,07,27,07,22,12.00
2014,07,27,07,23,12.10
2014,07,27,07,24,12.20
2014,07,27,07,25,12.30
2014,07,27,07,26,12.40
2014,07,27,07,27,12.50
2014,07,27,07,28,12.60
2014,07,27,07,29,12.70
2014,07,27,07,30,12.70
2014,07,27,07,31,12.80
2014,07,27,07,32,12.90
2014,07,27,07,33,13.00
2014,07,27,07,34,13.00
2014,07,27,07,35,13.10
2014,07,27,07,36,13.20
2014,07,27,07,37,13.20
2014,07,27,07,38,13.30
2014,07,27,07,39,13.40
2014,07,27,07,40,13.40
2014,07,27,07,41,13.50
2014,07,27,07,42,13.50
2014,07,27,07,43,13.60
2014,07,27,07,44,13.60
2014,07,27,07,45,13.70
2014,07,27,07,46,13.70
2014,07,27,07,47,13.70
2014,07,27,07,48,13.80
2014,07,27,07,49,13.80
2014,07,27,07,50,13.90
2014,07,27,07,51,14.00
2014,07,27,07,52,14.00
2014,07,27,07,53,14.10
2014,07,27,07,54,14.20
2014,07,27,07,55,14.30
2014,07,27,07,56,14.40
2014,07,27,07,57,14.50
2014,07,27,07,58,14.60
2014,07,27,07,59,14.60
2014,07,27,08,00,14.70
2014,07,27,08,01,14.70
2014,07,27,08,02,14.80
2014,07,27,08,03,14.90
2014,07,27,08,04,14.90
2014,07,27,08,05,15.00
2014,07,27,08,06,15.00
2014,07,27,08,07,15.10
2014,07,27,08,08,15.10
2014,07,27,08,09,15.10
2014,07,27,08,10,15.20
2014,07,27,08,11,15.20
2014,07,27,08,12,15.30
2014,07,27,08,13,15.30
2014,07,27,08,14,15.40
2014,07,27,08,15,15.50
2014,07,27,08,16,15.50
2014,07,27,08,17,15.60
2014,07,27,08,18,15.60
2014,07,27,08,19,15.70
2014,07,27,08,20,15.70
2014,07,27,08,21,15.70
2014,07,27,08,22,15.80
2014,07,27,08,23,15.80
2014,07,27,08,24,15.80
2014,07,27,08,25,15.80
2014,07,27,08,26,15.80
2014,07,27,08,27,15.90
2014,07,27,08,28,15.90
2014,07,27,08,29,16.00
2014,07,27,08,30,16.00
2014,07,27,08,31,16.10
2014,07,27,08,32,16.10
2014,07,27,08,33,16.20
2014,07,27,08,34,16.20
2014,07,27,08,35,16.30
2014,07,27,08,36,16.40
2014,07,27,08,37,16.50
2014,07,27,08,38,16.60
2014,07,27,08,39,16.70
2014,07,27,08,40,16.80
2014,07,27,08,41,16.90
2014,07,27,08,42,17.00
2014,07,27,08,43,17.10
2014,07,27,08,44,17.20
2014,07,27,08,45,17.30
2014,07,27,08,46,17.40
2014,07,27,08,47,17.40
2014,07,27,08,48,17.50
2014,07,27,08,49,17.60
2014,07,27,08,50,17.70
2014,07,27,08,51,17.70
2014,07,27,08,52,17.80
2014,07,27,08,53,17.80
2014,07,27,08,54,17.90
2014,07,27,08,55,17.90
2014,07,27,08,56,18.00
2014,07,27,08,57,18.10
2014,07,27,08,58,18.10
2014,07,27,08,59,18.10
2014,07,27,09,00,18.20
2014,07,27,09,01,18.20
2014,07,27,09,02,18.20
2014,07,27,09,03,18.30
2014,07,27,09,04,18.30
2014,07,27,09,05,18.30
2014,07,27,09,06,18.40
2014,07,27,09,07,18.40
2014,07,27,09,08,18.40
2014,07,27,09,09,18.50
2014,07,27,09,10,18.50
2014,07,27,09,11,18.50
2014,07,27,09,12,18.60
2014,07,27,09,13,18.60
2014,07,27,09,14,18.60
2014,07,27,09,15,18.60
2014,07,27,09,16,18.60
2014,07,27,09,17,18.70
2014,07,27,09,18,18.70
2014,07,27,09,19,18.70
2014,07,27,09,20,18.70
2014,07,27,09,21,18.70
2014,07,27,09,22,18.80
2014,07,27,09,23,18.80
2014,07,27,09,24,18.80
2014,07,27,09,25,18.90
2014,07,27,09,26,18.90
2014,07,27,09,27,19.00
2014,07,27,09,28,19.00
2014,07,27,09,29,19.00
2014,07,27,09,30,19.00
2014,07,27,09,31,19.10
2014,07,27,09,32,19.10
2014,07,27,09,33,19.10
2014,07,27,09,34,19.10
2014,07,27,09,35,19.10
2014,07,27,09,36,19.10
2014,07,27,09,37,19.10
2014,07,27,09,38,19.00
2014,07,27,09,39,19.00
2014,07,27,09,40,19.10
2014,07,27,09,41,19.10
2014,07,27,09,42,19.00
2014,07,27,09,43,19.00
2014,07,27,09,44,19.10
2014,07,27,09,45,19.10
2014,07,27,09,46,19.10
2014,07,27,09,47,19.00
2014,07,27,09,48,19.00
2014,07,27,09,49,19.00
2014,07,27,09,50,19.00
2014,07,27,09,51,19.00
2014,07,27,09,52,19.10
2014,07,27,09,53,19.10
2014,07,27,09,54,19.10
2014,07,27,09,55,19.20
2014,07,27,09,56,19.20
2014,07,27,09,57,19.20
2014,07,27,09,58,19.30
2014,07,27,09,59,19.30
2014,07,27,10,00,19.40
2014,07,27,10,01,19.40
2014,07,27,10,02,19.50
2014,07,27,10,03,19.50
2014,07,27,10,04,19.60
2014,07,27,10,05,19.70
2014,07,27,10,06,19.70
2014,07,27,10,07,19.80
2014,07,27,10,08,19.80
2014,07,27,10,09,19.80
2014,07,27,10,10,19.80
2014,07,27,10,11,19.80
2014,07,27,10,12,19.80
2014,07,27,10,13,19.80
2014,07,27,10,14,19.80
2014,07,27,10,15,19.80
2014,07,27,10,16,19.90
2014,07,27,10,17,19.80
2014,07,27,10,18,19.80
2014,07,27,10,19,19.80
2014,07,27,10,20,19.80
2014,07,27,10,21,19.80
2014,07,27,10,22,19.80
2014,07,27,10,23,19.90
2014,07,27,10,24,20.00
2014,07,27,10,25,20.10
2014,07,27,10,26,20.20
2014,07,27,10,27,20.30
2014,07,27,10,28,20.40
2014,07,27,10,29,20.50
2014,07,27,10,30,20.50
2014,07,27,10,31,20.60
2014,07,27,10,32,20.60
2014,07,27,10,33,20.70
2014,07,27,10,34,20.70
2014,07,27,10,35,20.80
2014,07,27,10,36,20.80
2014,07,27,10,37,20.90
2014,07,27,10,38,20.90
2014,07,27,10,39,20.90
2014,07,27,10,40,20.80
2014,07,27,10,41,20.80
2014,07,27,10,42,20.80
2014,07,27,10,43,20.70
2014,07,27,10,44,20.70
2014,07,27,10,45,20.70
2014,07,27,10,46,20.70
2014,07,27,10,47,20.70
2014,07,27,10,48,20.60
2014,07,27,10,49,20.60
2014,07,27,10,50,20.60
2014,07,27,10,51,20.60
2014,07,27,10,52,20.50
2014,07,27,10,53,20.50
2014,07,27,10,54,20.50
2014,07,27,10,55,20.60
2014,07,27,10,56,20.60
2014,07,27,10,57,20.70
2014,07,27,10,58,20.70
2014,07,27,10,59,20.80
2014,07,27,11,00,20.80
2014,07,27,11,01,20.80
2014,07,27,11,02,20.90
2014,07,27,11,03,20.90
2014,07,27,11,04,20.90
2014,07,27,11,05,21.00
2014,07,27,11,06,21.00
2014,07,27,11,07,21.10
2014,07,27,11,08,21.10
2014,07,27,11,09,21.10
2014,07,27,11,10,21.10
2014,07,27,11,11,21.00
2014,07,27,11,12,21.00
2014,07,27,11,13,21.10
2014,07,27,11,14,21.10
2014,07,27,11,15,21.10
2014,07,27,11,16,21.10
2014,07,27,11,17,21.10
2014,07,27,11,18,21.10
2014,07,27,11,19,21.20
2014,07,27,11,20,21.20
2014,07,27,11,21,21.30
2014,07,27,11,22,21.40
2014,07,27,11,23,21.50
2014,07,27,11,24,21.60
2014,07,27,11,25,21.70
2014,07,27,11,26,21.80
2014,07,27,11,27,21.90
2014,07,27,11,28,22.00
2014,07,27,11,29,22.20
2014,07,27,11,30,22.30
2014,07,27,11,31,22.40
2014,07,27,11,32,22.50
2014,07,27,11,33,22.50
2014,07,27,11,34,22.60
2014,07,27,11,35,22.70
2014,07,27,11,36,22.80
2014,07,27,11,37,23.00
2014,07,27,11,38,23.10
2014,07,27,11,39,23.20
2014,07,27,11,40,23.20
2014,07,27,11,41,23.30
2014,07,27,11,42,23.30
2014,07,27,11,43,23.40
2014,07,27,11,44,23.40
2014,07,27,11,45,23.50
2014,07,27,11,46,23.50
2014,07,27,11,47,23.40
2014,07,27,11,48,23.50
2014,07,27,11,49,23.50
2014,07,27,11,50,23.60
2014,07,27,11,51,23.60
2014,07,27,11,52,23.60
2014,07,27,11,53,23.60
2014,07,27,11,54,23.60
2014,07,27,11,55,23.60
2014,07,27,11,56,23.70
2014,07,27,11,57,23.80
2014,07,27,11,58,23.80
2014,07,27,11,59,23.90
2014,07,27,12,00,23.90
2014,07,27,12,01,24.00
2014,07,27,12,02,24.00
2014,07,27,12,03,24.10
2014,07,27,12,04,24.10
2014,07,27,12,05,24.20
2014,07,27,12,06,24.20
2014,07,27,12,07,24.20
2014,07,27,12,08,24.20
2014,07,27,12,09,24.20
2014,07,27,12,10,24.20
2014,07,27,12,11,24.20
2014,07,27,12,12,24.20
2014,07,27,12,13,24.10
2014,07,27,12,14,24.10
2014,07,27,12,15,24.10
2014,07,27,12,16,24.00
2014,07,27,12,17,24.00
2014,07,27,12,18,24.10
2014,07,27,12,19,24.00
2014,07,27,12,20,24.00
2014,07,27,12,21,24.00
2014,07,27,12,22,24.00
2014,07,27,12,23,24.00
2014,07,27,12,24,24.00
2014,07,27,12,25,24.00
2014,07,27,12,26,24.00
2014,07,27,12,27,24.10
2014,07,27,12,28,24.10
2014,07,27,12,29,24.20
2014,07,27,12,30,24.20
2014,07,27,12,31,24.20
2014,07,27,12,32,24.20
2014,07,27,12,33,24.10
2014,07,27,12,34,24.10
2014,07,27,12,35,24.20
2014,07,27,12,36,24.20
2014,07,27,12,37,24.30
2014,07,27,12,38,24.40
2014,07,27,12,39,24.50
2014,07,27,12,40,24.60
2014,07,27,12,41,24.60
2014,07,27,12,42,24.60
2014,07,27,12,43,24.60
2014,07,27,12,44,24.60
2014,07,27,12,45,24.50
2014,07,27,12,46,24.50
2014,07,27,12,47,24.50
2014,07,27,12,48,24.40
2014,07,27,12,49,24.50
2014,07,27,12,50,24.50
2014,07,27,12,51,24.50
2014,07,27,12,52,24.50
2014,07,27,12,53,24.60
2014,07,27,12,54,24.60
2014,07,27,12,55,24.60
2014,07,27,12,56,24.60
2014,07,27,12,57,24.60
2014,07,27,12,58,24.60
2014,07,27,12,59,24.60
2014,07,27,13,00,24.70
2014,07,27,13,01,24.70
2014,07,27,13,02,24.70
2014,07,27,13,03,24.80
2014,07,27,13,04,24.80
2014,07,27,13,05,24.90
2014,07,27,13,06,25.00
2014,07,27,13,07,25.10
2014,07,27,13,08,25.20
2014,07,27,13,09,25.30
2014,07,27,13,10,25.40
2014,07,27,13,11,25.40
2014,07,27,13,12,25.40
2014,07,27,13,13,25.50
2014,07,27,13,14,25.60
2014,07,27,13,15,25.50
2014,07,27,13,16,25.40
2014,07,27,13,17,25.40
2014,07,27,13,18,25.30
2014,07,27,13,19,25.30
2014,07,27,13,20,25.20
2014,07,27,13,21,25.20
2014,07,27,13,22,25.20
2014,07,27,13,23,25.10
2014,07,27,13,24,25.10
2014,07,27,13,25,25.10
2014,07,27,13,26,25.20
2014,07,27,13,27,25.10
2014,07,27,13,28,25.10
2014,07,27,13,29,25.10
2014,07,27,13,30,25.10
2014,07,27,13,31,25.20
2014,07,27,13,32,25.20
2014,07,27,13,33,25.30
2014,07,27,13,34,25.40
2014,07,27,13,35,25.40
2014,07,27,13,36,25.50
2014,07,27,13,37,25.60
2014,07,27,13,38,25.60
2014,07,27,13,39,25.70
2014,07,27,13,40,25.70
2014,07,27,13,41,25.70
2014,07,27,13,42,25.70
2014,07,27,13,43,25.70
2014,07,27,13,44,25.80
2014,07,27,13,45,25.70
2014,07,27,13,46,25.70
2014,07,27,13,47,25.70
2014,07,27,13,48,25.60
2014,07,27,13,49,25.60
2014,07,27,13,50,25.50
2014,07,27,13,51,25.50
2014,07,27,13,52,25.40
2014,07,27,13,53,25.40
2014,07,27,13,54,25.40
2014,07,27,13,55,25.40
2014,07,27,13,56,25.40
2014,07,27,13,57,25.30
2014,07,27,13,58,25.30
2014,07,27,13,59,25.40
2014,07,27,14,00,25.50
2014,07,27,14,01,25.60
2014,07,27,14,02,25.70
2014,07,27,14,03,25.70
2014,07,27,14,04,25.80
2014,07,27,14,05,25.80
2014,07,27,14,06,25.80
2014,07,27,14,07,25.90
2014,07,27,14,08,26.00
2014,07,27,14,09,26.10
2014,07,27,14,10,26.10
2014,07,27,14,11,26.10
2014,07,27,14,12,26.10
2014,07,27,14,13,26.10
2014,07,27,14,14,26.00
2014,07,27,14,15,26.00
2014,07,27,14,16,25.90
2014,07,27,14,17,25.80
2014,07,27,14,18,25.70
2014,07,27,14,19,25.60
2014,07,27,14,20,25.50
2014,07,27,14,21,25.40
2014,07,27,14,22,25.40
2014,07,27,14,23,25.40
2014,07,27,14,24,25.50
2014,07,27,14,25,25.50
2014,07,27,14,26,25.60
2014,07,27,14,27,25.70
2014,07,27,14,28,25.70
2014,07,27,14,29,25.80
2014,07,27,14,30,25.90
2014,07,27,14,31,26.00
2014,07,27,14,32,26.10
2014,07,27,14,33,26.20
2014,07,27,14,34,26.20
2014,07,27,14,35,26.20
2014,07,27,14,36,26.20
2014,07,27,14,37,26.20
2014,07,27,14,38,26.20
2014,07,27,14,39,26.20
2014,07,27,14,40,26.20
2014,07,27,14,41,26.30
2014,07,27,14,42,26.30
2014,07,27,14,43,26.30
2014,07,27,14,44,26.40
2014,07,27,14,45,26.40
2014,07,27,14,46,26.40
2014,07,27,14,47,26.40
2014,07,27,14,48,26.40
2014,07,27,14,49,26.40
2014,07,27,14,50,26.40
2014,07,27,14,51,26.40
2014,07,27,14,52,26.40
2014,07,27,14,53,26.40
2014,07,27,14,54,26.40
2014,07,27,14,55,26.30
2014,07,27,14,56,26.30
2014,07,27,14,57,26.30
2014,07,27,14,58,26.30
2014,07,27,14,59,26.30
2014,07,27,15,00,26.30
2014,07,27,15,01,26.30
2014,07,27,15,02,26.40
2014,07,27,15,03,26.40
2014,07,27,15,04,26.50
2014,07,27,15,05,26.60
2014,07,27,15,06,26.60
2014,07,27,15,07,26.70
2014,07,27,15,08,26.70
2014,07,27,15,09,26.80
2014,07,27,15,10,26.80
2014,07,27,15,11,26.80
2014,07,27,15,12,26.90
2014,07,27,15,13,27.00
2014,07,27,15,14,27.10
2014,07,27,15,15,27.10
2014,07,27,15,16,27.20
2014,07,27,15,17,27.20
2014,07,27,15,18,27.20
2014,07,27,15,19,27.20
2014,07,27,15,20,27.20
2014,07,27,15,21,27.10
2014,07,27,15,22,27.10
2014,07,27,15,23,27.00
2014,07,27,15,24,26.90
2014,07,27,15,25,26.80
2014,07,27,15,26,26.70
2014,07,27,15,27,26.70
2014,07,27,15,28,26.70
2014,07,27,15,29,26.70
2014,07,27,15,30,26.80
2014,07,27,15,31,26.80
2014,07,27,15,32,26.90
2014,07,27,15,33,26.90
2014,07,27,15,34,27.00
2014,07,27,15,35,27.10
2014,07,27,15,36,27.20
2014,07,27,15,37,27.20
2014,07,27,15,38,27.30
2014,07,27,15,39,27.40
2014,07,27,15,40,27.40
2014,07,27,15,41,27.50
2014,07,27,15,42,27.60
2014,07,27,15,43,27.60
2014,07,27,15,44,27.60
2014,07,27,15,45,27.60
2014,07,27,15,46,27.60
2014,07,27,15,47,27.60
2014,07,27,15,48,27.50
2014,07,27,15,49,27.50
2014,07,27,15,50,27.60
2014,07,27,15,51,27.60
2014,07,27,15,52,27.70
2014,07,27,15,53,27.70
2014,07,27,15,54,27.80
2014,07,27,15,55,27.80
2014,07,27,15,56,27.90
2014,07,27,15,57,28.00
2014,07,27,15,58,28.10
2014,07,27,15,59,28.20
2014,07,27,16,00,28.20
2014,07,27,16,01,28.30
2014,07,27,16,02,28.30
2014,07,27,16,03,28.20
2014,07,27,16,04,28.20
2014,07,27,16,05,28.10
2014,07,27,16,06,28.10
2014,07,27,16,07,28.10
2014,07,27,16,08,28.10
2014,07,27,16,09,28.10
2014,07,27,16,10,28.10
2014,07,27,16,11,28.20
2014,07,27,16,12,28.20
2014,07,27,16,13,28.30
2014,07,27,16,14,28.20
2014,07,27,16,15,28.20
2014,07,27,16,16,28.20
2014,07,27,16,17,28.20
2014,07,27,16,18,28.20
2014,07,27,16,19,28.20
2014,07,27,16,20,28.20
2014,07,27,16,21,28.20
2014,07,27,16,22,28.20
2014,07,27,16,23,28.30
2014,07,27,16,24,28.30
2014,07,27,16,25,28.40
2014,07,27,16,26,28.50
2014,07,27,16,27,28.50
2014,07,27,16,28,28.60
2014,07,27,16,29,28.70
2014,07,27,16,30,28.70
2014,07,27,16,31,28.70
2014,07,27,16,32,28.70
2014,07,27,16,33,28.60
2014,07,27,16,34,28.60
2014,07,27,16,35,28.50
2014,07,27,16,36,28.40
2014,07,27,16,37,28.40
2014,07,27,16,38,28.40
2014,07,27,16,39,28.40
2014,07,27,16,40,28.50
2014,07,27,16,41,28.50
2014,07,27,16,42,28.60
2014,07,27,16,43,28.70
2014,07,27,16,44,28.80
2014,07,27,16,45,28.90
2014,07,27,16,46,28.80
2014,07,27,16,47,28.80
2014,07,27,16,48,28.70
2014,07,27,16,49,28.60
2014,07,27,16,50,28.60
2014,07,27,16,51,28.50
2014,07,27,16,52,28.50
2014,07,27,16,53,28.40
2014,07,27,16,54,28.40
2014,07,27,16,55,28.50
2014,07,27,16,56,28.60
2014,07,27,16,57,28.60
2014,07,27,16,58,28.70
2014,07,27,16,59,28.70
2014,07,27,17,00,28.70
2014,07,27,17,01,28.70
2014,07,27,17,02,28.60
2014,07,27,17,03,28.60
2014,07,27,17,04,28.60
2014,07,27,17,05,28.50
2014,07,27,17,06,28.30
2014,07,27,17,07,28.10
2014,07,27,17,08,27.80
2014,07,27,17,09,27.50
2014,07,27,17,10,27.30
2014,07,27,17,11,27.20
2014,07,27,17,12,27.00
2014,07,27,17,13,26.90
2014,07,27,17,14,26.80
2014,07,27,17,15,26.70
2014,07,27,17,16,26.70
2014,07,27,17,17,26.60
2014,07,27,17,18,26.60
2014,07,27,17,19,26.60